Weather History for Jonesboro, AR

Change the Weather History Date:

Tuesday, June 18, 2013

  Actual Average Record
Temperature  
Mean Temperature 79 °F 79 °F  
Max Temperature 89 °F 90 °F 101 °F (1953)
Min Temperature 68 °F 68 °F 54 °F (1903)
Degree Days  
Heating Degree Days 0 0  
Month to date heating degree days 0 0  
Since 1 June heating degree days 0 0  
Since 1 July heating degree days 3556 3652  
Cooling Degree Days 14 14  
Month to date cooling degree days 230 207  
Year to date cooling degree days 460 420  
Since 1 June cooling degree days 230 207  
Growing Degree Days 28 (Base 50)    
Moisture  
Dew Point 65 °F    
Average Humidity 65    
Maximum Humidity 87    
Minimum Humidity 43    
Precipitation  
Precipitation 0.00 in 0.12 in 2.00 in (1902)
Month to date precipitation 3.67 1.91  
Year to date precipitation 30.01 23.19  
Snow  
Snow 0.00 in 0.00 in - ()
Month to date snowfall 0.0 0.0  
Since 1 June snowfall 0.0 0.0  
Since 1 July snowfall 11.0 4.8  
Snow Depth 0.00 in    
Sea Level Pressure  
Sea Level Pressure 29.94 in    
Wind  
Wind Speed 5 mph (NNE)    
Max Wind Speed 14 mph    
Max Gust Speed 37 mph    
Visibility 10 miles    
Events      
T = Trace of Precipitation, MM = Missing Value Source: NWS Daily Summary

Daily Weather History Graph

Daily Weather History Graph

Search for Another Location

Airport:

Trip Planner

Search our weather history database for the weather conditions in past years. The results will help you decide how hot, cold, wet, or windy it might be!

Date:

Astronomy

Jun. 18, 2013 Rise Set
Actual Time 5:46 AM CDT 8:21 PM CDT
Civil Twilight 5:15 AM CDT 8:51 PM CDT
Nautical Twilight 4:38 AM CDT 9:29 PM CDT
Astronomical Twilight 3:56 AM CDT 10:10 PM CDT
Moon 3:13 PM CDT (6/18) 1:46 AM CDT (6/18)
Length of Visible Light 15h 35m
Length of Day
14h 35m
Waxing Gibbous, 71% of the Moon is Illuminated
Jun 18
Waxing Gibbous
Jun 23
Full
Jun 29
Last Quarter
Jul 8
New
Jul 15
First Quarter

Hourly Weather History & Observations

Time (CDT) Temp. Heat Index Dew Point Humidity Pressure Visibility Wind Dir Wind Speed Gust Speed Precip Events Conditions
12:53 AM 69.1 °F - 64.9 °F 87% 29.87 in 10.0 mi East 4.6 mph - N/A   Partly Cloudy
1:53 AM 68.0 °F - 64.9 °F 90% 29.88 in 10.0 mi Calm Calm - N/A   Clear
2:53 AM 68.0 °F - 64.9 °F 90% 29.89 in 10.0 mi North 4.6 mph - N/A   Mostly Cloudy
3:53 AM 68.0 °F - 64.9 °F 90% 29.88 in 10.0 mi North 8.1 mph - N/A   Overcast
4:53 AM 69.1 °F - 64.9 °F 87% 29.89 in 10.0 mi North 5.8 mph - N/A   Overcast
5:21 AM 69.8 °F - 64.4 °F 83% 29.90 in 10.0 mi North 5.8 mph - N/A   Overcast
5:41 AM 69.8 °F - 64.4 °F 83% 29.91 in 10.0 mi North 8.1 mph - N/A   Overcast
5:53 AM 69.1 °F - 64.9 °F 87% 29.91 in 10.0 mi North 5.8 mph - N/A   Overcast
6:53 AM 69.1 °F - 64.9 °F 87% 29.93 in 10.0 mi North 5.8 mph - N/A   Overcast
7:38 AM 71.6 °F - 66.2 °F 83% 29.96 in 10.0 mi North 6.9 mph - N/A   Scattered Clouds
7:53 AM 72.0 °F - 66.0 °F 81% 29.95 in 10.0 mi NNE 9.2 mph - N/A   Partly Cloudy
8:23 AM 73.4 °F - 66.2 °F 78% 29.97 in 10.0 mi NE 6.9 mph - N/A   Scattered Clouds
8:42 AM 75.2 °F - 66.2 °F 73% 29.97 in 10.0 mi NE 5.8 mph - N/A   Mostly Cloudy
8:53 AM 75.9 °F - 66.0 °F 71% 29.97 in 10.0 mi NE 6.9 mph - N/A   Scattered Clouds
9:53 AM 78.1 °F - 64.9 °F 64% 29.99 in 10.0 mi Variable 5.8 mph - N/A   Clear
10:53 AM 82.0 °F 83.4 °F 64.0 °F 54% 29.98 in 10.0 mi NNE 8.1 mph - N/A   Clear
11:53 AM 84.9 °F 85.9 °F 63.0 °F 48% 29.98 in 10.0 mi NE 9.2 mph - N/A   Clear
12:42 PM 84.2 °F 85.0 °F 62.6 °F 48% 29.98 in 10.0 mi Variable 3.5 mph - N/A   Partly Cloudy
12:53 PM 86.0 °F 86.8 °F 63.0 °F 46% 29.98 in 10.0 mi Variable 6.9 mph - N/A   Partly Cloudy
1:53 PM 86.0 °F 87.3 °F 64.0 °F 48% 29.97 in 10.0 mi NE 4.6 mph - N/A   Clear
2:37 PM 87.8 °F 89.4 °F 64.4 °F 46% 29.97 in 10.0 mi North 6.9 mph - N/A   Partly Cloudy
2:53 PM 84.0 °F 85.4 °F 64.0 °F 51% 29.96 in 10.0 mi Calm Calm - N/A   Clear
3:53 PM 87.1 °F 87.8 °F 63.0 °F 44% 29.94 in 10.0 mi NNW 3.5 mph - N/A   Clear
4:53 PM 87.1 °F 87.8 °F 63.0 °F 44% 29.93 in 10.0 mi NNE 3.5 mph - N/A   Clear
5:53 PM 88.0 °F 89.3 °F 64.0 °F 45% 29.92 in 10.0 mi North - - N/A   Clear
6:53 PM 84.9 °F 86.6 °F 64.9 °F 51% 29.93 in 10.0 mi NE 3.5 mph - N/A   Clear
7:53 PM 84.0 °F 86.3 °F 66.0 °F 55% 29.93 in 10.0 mi Calm Calm - N/A   Clear
8:53 PM 75.9 °F - 70.0 °F 82% 29.94 in 10.0 mi Calm Calm - N/A   Clear
9:53 PM 73.9 °F - 69.1 °F 85% 29.96 in 10.0 mi Calm Calm - N/A   Clear
10:53 PM 73.0 °F - 68.0 °F 84% 29.96 in 10.0 mi West 3.5 mph - N/A   Clear
11:53 PM 73.9 °F - 68.0 °F 82% 29.96 in 10.0 mi West 3.5 mph - N/A   Clear